星链-2001 (STARLINK-2001 )

导读

STARLINK-2001是美国太空探索技术公司SpaceX星链星座的卫星,于2021年2月4日发射。它属于星链互联网卫星组网的组成部分,运行在近地轨道,旨在为全球提供高速低延迟的宽带互联网服务,支撑星链系统覆盖全球偏远区域与高密度用户场景,是星链星座规模化部署过程中的一颗组网卫星。

Basic Information
目录编号:
47596
目录名称:
STARLINK-2001
国际标识:
2021-009BA
轨道中心:
EARTH
卫星名称:
星链-2001
卫星全名:
星链-2001 (STARLINK-2001 )
卫星状态:
在轨 (已飞行1960 天)
发射日期:
2021-02-04 UTC
国别 :
美国 (US)
星等 :
--
Orbit Information
数据来源 国际轨道数据 AOE轨道数据
星历时间 2026-06-18T19:41:37+0800
8小时前
查看轨道信息
2026-06-15T06:00:00+0800
3天前
查看轨道信息
半长轴 6741.025km 6742.28km
偏心率 0.000115 0.0001111
轨道倾角 53.039° 53.038°
近地点辐角 24.419° 26.558°
升交点赤经 250.192° 267.810°
平近点角 335.688° 321.638°
近地点 362.112km 363.393km
远地点 363.664km 364.893km
周期 91.801分钟 91.827分钟
每日圈数 15.686061 15.68168
Detailed Information
固有亮度:
5
最大亮度:
2.5
卫星平台:
Starlink V1.0
覆盖范围:
全球
运营商:
太空探索技术公司
运营商所在国:
美国
制造商(研发单位):
太空探索技术公司
制造商所在国:
美国
使用方式:
暂无
Satellite Introduction
星链(Starlink)计划是由太空探索技术公司(SpaceX)提出的一个巨型低轨卫星互联网星座项目,计划在2019年至2024年间在太空搭建由约1.2万颗卫星组成的“星链”网络,其中1584颗将部署在地球上空550千米处的近地轨道,并从2020年开始工作。该卫星仍在工作。
2D Orbit Map
3D Orbit Map
Orbit Altitude Analysis Chart
Orbit Inclination Analysis Chart
Orbit Comprehensive Analysis Chart
View Comprehensive Chart